Glendive, MT

2:12 PM MDT on June 23, 2017 (GMT -0600)
Dawson Community

Weather History for KGDV - February, 2013

Change the Weather History Date:

Wednesday, February 13, 2013

  Actual Average Record
Temperature  
Mean Temperature 36 °F -  
Max Temperature 42 °F 31 °F 53 °F (2005)
Min Temperature 30 °F 13 °F -9 °F (2007)
Degree Days  
Heating Degree Days 29    
Moisture  
Dew Point 27 °F    
Average Humidity 66    
Maximum Humidity 81    
Minimum Humidity 56    
Precipitation  
Precipitation 0.00 in - - ()
Sea Level Pressure  
Sea Level Pressure 29.75 in    
Wind  
Wind Speed 18 mph (West)    
Max Wind Speed 29 mph    
Max Gust Speed 37 mph    
Visibility 10 miles    
Events      
Averages and records for this station are not official NWS values.
T = Trace of Precipitation, MM = Missing Value Source: NWS Daily Summary

Daily Weather History Graph

Daily Weather History Graph

Search for Another Location

Airport or City:

Trip Planner

Search our weather history database for the weather conditions in past years. The results will help you decide how hot, cold, wet, or windy it might be!

Date:

Astronomy

Feb. 13, 2013 Rise Set
Actual Time 7:06 AM MST 5:20 PM MST
Civil Twilight 6:35 AM MST 5:52 PM MST
Nautical Twilight 5:59 AM MST 6:28 PM MST
Astronomical Twilight 5:24 AM MST 7:03 PM MST
Moon 8:19 AM MST (2/13) 9:47 PM MST (2/13)
Length of Visible Light 11h 17m
Length of Day
10h 14m
Waxing Crescent, 14% of the Moon is Illuminated
Feb 13
Waxing Crescent
Feb 17
First Quarter
Feb 25
Full
Mar 4
Last Quarter
Mar 11
New

Hourly Weather History & Observations

Time (MST) Temp. Windchill Dew Point Humidity Pressure Visibility Wind Dir Wind Speed Gust Speed Precip Events Conditions
12:15 AM 33.8 °F 25.8 °F 26.6 °F 75% 29.76 in 10.0 mi SW 10.4 mph - N/A   Mostly Cloudy
12:35 AM 33.8 °F 25.8 °F 24.8 °F 70% 29.74 in 10.0 mi SW 10.4 mph - N/A   Overcast
12:55 AM 33.8 °F 25.8 °F 24.8 °F 70% 29.73 in 10.0 mi SW 10.4 mph - N/A   Scattered Clouds
1:15 AM 33.8 °F 25.3 °F 26.6 °F 75% 29.72 in 10.0 mi WSW 11.5 mph 19.6 mph N/A   Clear
1:55 AM 33.8 °F 25.8 °F 26.6 °F 75% 29.71 in 10.0 mi WSW 10.4 mph - N/A   Mostly Cloudy
2:35 AM 33.8 °F 24.8 °F 24.8 °F 70% 29.70 in 10.0 mi WSW 12.7 mph - N/A   Scattered Clouds
2:55 AM 33.8 °F 25.3 °F 24.8 °F 70% 29.69 in 10.0 mi WSW 11.5 mph - N/A   Scattered Clouds
3:15 AM 35.6 °F 28.0 °F 24.8 °F 65% 29.68 in 10.0 mi WSW 10.4 mph - N/A   Overcast
3:35 AM 35.6 °F 26.2 °F 26.6 °F 70% 29.67 in 10.0 mi WSW 15.0 mph - N/A   Overcast
3:55 AM 35.6 °F 27.1 °F 26.6 °F 70% 29.66 in 10.0 mi WSW 12.7 mph - N/A   Overcast
4:15 AM 35.6 °F 28.0 °F 26.6 °F 70% 29.66 in 10.0 mi WSW 10.4 mph - N/A   Overcast
4:35 AM 39.2 °F 31.2 °F 26.6 °F 61% 29.65 in 10.0 mi WSW 13.8 mph - N/A   Mostly Cloudy
4:55 AM 37.4 °F 27.8 °F 26.6 °F 65% 29.64 in 10.0 mi West 17.3 mph - N/A   Overcast
5:15 AM 39.2 °F 29.6 °F 26.6 °F 61% 29.65 in 10.0 mi West 19.6 mph 27.6 mph N/A   Overcast
5:35 AM 37.4 °F 26.6 °F 28.4 °F 70% 29.65 in 10.0 mi West 21.9 mph 32.2 mph N/A   Overcast
5:55 AM 37.4 °F 26.4 °F 30.2 °F 75% 29.65 in 10.0 mi West 23.0 mph 31.1 mph N/A   Overcast
6:15 AM 35.6 °F 24.8 °F 30.2 °F 81% 29.65 in 10.0 mi West 19.6 mph 27.6 mph N/A   Scattered Clouds
6:35 AM 35.6 °F 24.0 °F 30.2 °F 81% 29.65 in 10.0 mi West 23.0 mph 29.9 mph N/A   Partly Cloudy
6:55 AM 35.6 °F 24.8 °F 30.2 °F 81% 29.65 in 10.0 mi West 19.6 mph 28.8 mph N/A   Clear
7:15 AM 35.6 °F 24.5 °F 30.2 °F 81% 29.65 in 10.0 mi West 20.7 mph - N/A   Clear
7:35 AM 37.4 °F 26.4 °F 30.2 °F 75% 29.66 in 10.0 mi West 23.0 mph 29.9 mph N/A   Partly Cloudy
7:55 AM 37.4 °F 25.6 °F 28.4 °F 70% 29.66 in 10.0 mi West 26.5 mph 32.2 mph N/A   Clear
8:15 AM 39.2 °F 28.3 °F 28.4 °F 65% 29.67 in 10.0 mi West 25.3 mph 29.9 mph N/A   Scattered Clouds
8:35 AM 39.2 °F 29.3 °F 28.4 °F 65% 29.68 in 10.0 mi West 20.7 mph 27.6 mph N/A   Mostly Cloudy
8:55 AM 39.2 °F 29.8 °F 30.2 °F 70% 29.68 in 10.0 mi West 18.4 mph 27.6 mph N/A   Mostly Cloudy
9:15 AM 39.2 °F 29.8 °F 30.2 °F 70% 29.68 in 10.0 mi West 18.4 mph 26.5 mph N/A   Partly Cloudy
9:35 AM 41.0 °F 30.9 °F 30.2 °F 65% 29.69 in 10.0 mi West 24.2 mph - N/A   Clear
9:55 AM 41.0 °F 30.9 °F 28.4 °F 61% 29.70 in 10.0 mi West 24.2 mph 29.9 mph N/A   Partly Cloudy
10:15 AM 42.8 °F 32.9 °F 28.4 °F 57% 29.70 in 10.0 mi West 26.5 mph 32.2 mph N/A   Clear
10:35 AM 41.0 °F 31.1 °F 28.4 °F 61% 29.70 in 10.0 mi West 23.0 mph 31.1 mph N/A   Clear
10:55 AM 42.8 °F 34.0 °F 28.4 °F 57% 29.70 in 10.0 mi WNW 20.7 mph 33.4 mph N/A   Clear
11:15 AM 42.8 °F 33.5 °F 28.4 °F 57% 29.71 in 10.0 mi WNW 23.0 mph 33.4 mph N/A   Partly Cloudy
11:35 AM 42.8 °F 33.1 °F 28.4 °F 57% 29.71 in 10.0 mi WNW 25.3 mph 29.9 mph N/A   Mostly Cloudy
11:55 AM 42.8 °F 33.1 °F 28.4 °F 57% 29.71 in 10.0 mi WNW 25.3 mph 31.1 mph N/A   Partly Cloudy
12:15 PM 42.8 °F 33.3 °F 30.2 °F 61% 29.72 in 10.0 mi WNW 24.2 mph 34.5 mph N/A   Clear
12:55 PM 42.8 °F 33.5 °F 28.4 °F 57% 29.73 in 10.0 mi WNW 23.0 mph 36.8 mph N/A   Clear
1:15 PM 42.8 °F 32.5 °F 30.2 °F 61% 29.73 in 10.0 mi WNW 28.8 mph 35.7 mph N/A   Clear
1:35 PM 42.8 °F 33.1 °F 28.4 °F 57% 29.74 in 10.0 mi WNW 25.3 mph 34.5 mph N/A   Clear
1:55 PM 42.8 °F 32.9 °F 30.2 °F 61% 29.74 in 10.0 mi WNW 26.5 mph 29.9 mph N/A   Clear
2:15 PM 42.8 °F 32.9 °F 28.4 °F 57% 29.74 in 10.0 mi WNW 26.5 mph 34.5 mph N/A   Clear
2:55 PM 41.0 °F 30.9 °F 28.4 °F 61% 29.76 in 10.0 mi WNW 24.2 mph 33.4 mph N/A   Clear
3:15 PM 41.0 °F 31.1 °F 28.4 °F 61% 29.77 in 10.0 mi WNW 23.0 mph 33.4 mph N/A   Scattered Clouds
3:35 PM 39.2 °F 28.5 °F 28.4 °F 65% 29.77 in 10.0 mi WNW 24.2 mph 32.2 mph N/A   Scattered Clouds
3:55 PM 39.2 °F 28.0 °F 28.4 °F 65% 29.78 in 10.0 mi WNW 26.5 mph 32.2 mph N/A   Clear
4:35 PM 37.4 °F 25.6 °F 26.6 °F 65% 29.81 in 10.0 mi WNW 26.5 mph 35.7 mph N/A   Mostly Cloudy
4:55 PM 37.4 °F 26.4 °F 26.6 °F 65% 29.82 in 10.0 mi WNW 23.0 mph 31.1 mph N/A   Partly Cloudy
5:15 PM 35.6 °F 24.0 °F 26.6 °F 70% 29.82 in 10.0 mi WNW 23.0 mph 32.2 mph N/A   Clear
5:35 PM 35.6 °F 24.5 °F 26.6 °F 70% 29.83 in 10.0 mi WNW 20.7 mph 31.1 mph N/A   Clear
5:55 PM 35.6 °F 25.2 °F 26.6 °F 70% 29.84 in 10.0 mi WNW 18.4 mph 29.9 mph N/A   Clear
6:15 PM 35.6 °F 25.5 °F 26.6 °F 70% 29.85 in 10.0 mi WNW 17.3 mph 29.9 mph N/A   Clear
6:35 PM 33.8 °F 22.5 °F 26.6 °F 75% 29.85 in 10.0 mi WNW 19.6 mph 27.6 mph N/A   Clear
6:55 PM 33.8 °F 22.5 °F 26.6 °F 75% 29.86 in 10.0 mi West 19.6 mph - N/A   Clear
7:15 PM 33.8 °F 22.2 °F 26.6 °F 75% 29.87 in 10.0 mi West 20.7 mph 25.3 mph N/A   Clear
7:35 PM 33.8 °F 21.6 °F 24.8 °F 70% 29.87 in 10.0 mi West 23.0 mph 27.6 mph N/A   Clear
7:55 PM 33.8 °F 21.0 °F 21.2 °F 60% 29.88 in 10.0 mi WNW 25.3 mph 33.4 mph N/A   Scattered Clouds
8:15 PM 33.8 °F 21.9 °F 21.2 °F 60% 29.89 in 10.0 mi WNW 21.9 mph 26.5 mph N/A   Mostly Cloudy
8:35 PM 33.8 °F 21.9 °F 19.4 °F 56% 29.89 in 10.0 mi WNW 21.9 mph 33.4 mph N/A   Scattered Clouds
8:55 PM 32.0 °F 20.8 °F 19.4 °F 60% 29.90 in 10.0 mi WNW 17.3 mph 23.0 mph N/A   Overcast
9:15 PM 32.0 °F 18.1 °F 19.4 °F 60% 29.89 in 10.0 mi WNW 27.6 mph 34.5 mph N/A   Mostly Cloudy
9:55 PM 30.2 °F 17.1 °F 19.4 °F 64% 29.90 in 10.0 mi WNW 21.9 mph 29.9 mph N/A   Clear
10:15 PM 30.2 °F 15.4 °F 19.4 °F 64% 29.90 in 10.0 mi WNW 28.8 mph 36.8 mph N/A   Clear
10:35 PM 30.2 °F 16.2 °F 19.4 °F 64% 29.90 in 10.0 mi WNW 25.3 mph 33.4 mph N/A   Clear
10:55 PM 30.2 °F 15.9 °F 19.4 °F 64% 29.90 in 10.0 mi WNW 26.5 mph 34.5 mph N/A   Clear
11:15 PM 30.2 °F 15.7 °F 19.4 °F 64% 29.90 in 10.0 mi WNW 27.6 mph 36.8 mph N/A   Partly Cloudy